Regional Weather Roundup
Issued by NWS Grand Forks, ND

Home | Current Version | Previous Version | Graphics & Text | Print | Product List | Glossary On
Versions: 1 2 3 4 5 6 7 8 9 10 11 12 13 14 15 16 17 18 19 20 21 22 23 24 25 26 27 28 29 30 31 32 33 34 35 36 37 38 39 40 41 42 43 44 45 46 47 48 49 50
000
ASUS43 KFGF 060731
RWRFGF
PRAIRIE TO PINES  WEATHER ROUNDUP
NATIONAL WEATHER SERVICE EASTERN NORTH DAKOTA/GRAND FORKS ND
200 AM CDT WED MAY 06 2015

 **SATELLITE DATA USED TO AUGMENT SKY COVER AT AUTOMATED STATIONS**
 *****  WEATHER ACROSS EASTERN NORTH DAKOTA  *****

CITY           SKY/WX    TMP DP  RH WIND       PRES   REMARKS
GRAND FORKS    PTCLDY    60  52  74 SE12      29.96S
GRAND FRKS AFB NOT AVBL
GRAND FRKS NWS   N/A     57 N/A N/A S10         N/A
DEVILS LAKE    CLOUDY    61  52  72 SE14      29.91S
FARGO          CLOUDY    63  53  70 S15G25    29.97S
WAHPETON ARPT  CLOUDY    59  52  77 SE17      29.99F
$$

 ***** WEATHER ACROSS CENTRAL AND WESTERN NORTH DAKOTA  *****

CITY           SKY/WX    TMP DP  RH WIND       PRES   REMARKS
BISMARCK       CLOUDY    59  32  36 S16       29.86S
MINOT          CLEAR     52  42  69 SE8       29.81F
JAMESTOWN      CLOUDY    61  55  81 SE13      29.92S
MINOT AFB      CLEAR     52  43  70 SE9       29.80S
GARRISON         N/A     57  50  77 S10       29.82F
WILLISTON      CLEAR     61  50  67 SE10      29.74F
DICKINSON      PTCLDY    54  51  90 SE13      29.76F
HETTINGER      CLOUDY    56  53  90 SE15      29.80F
$$

 *****  OTHER AIRPORT OBSERVATIONS IN OUR AREA  *****

CITY           SKY/WX    TMP DP  RH WIND       PRES   REMARKS
WALHALLA       FAIR      61  50  67 S13       29.93F
GRAFTON AIRPOR FAIR      59  52  77 SE12      29.96S
VALLEY CITY AR CLOUDY    57  57 100 SE13      29.94F
CANDO          FAIR      57  54  88 SE13      29.91S
CAVALIER APRT  FAIR      61  52  72 S13       29.94F
GWINNER          N/A     59  59 100 SE13      29.96S
SHEYENNE NWR     N/A     59  55  85 SE14      29.95
ROLLA          NOT AVBL
 ***** THE ABOVE OBSERVATIONS ARE NON NWS ARE NOT QUALITY
       CONTROLLED AND MAY MIS-REPORT RAIN FOR SNOW...
$$

  *****  WEATHER ACROSS NORTHERN MINNESOTA  *****

CITY           SKY/WX    TMP DP  RH WIND       PRES   REMARKS
FLAG ISLAND    CLEAR     57  39  51 SE12      30.02S
WARROAD        CLEAR     59  43  55 S9        30.02S
ROSEAU         CLEAR     55  39  54 S6        30.01S
HALLOCK        CLEAR     57  41  54 SE13      29.96F
THF RVR FALLS  CLOUDY    57  45  62 SE9       30.00F
BAUDETTE       CLEAR     51  34  52 SE9       30.05F
WASKISH        CLEAR     52  37  58 CALM      30.06S
CROOKSTON      CLEAR     55  48  76 SE8       29.99
STEPHEN NDAWN    N/A     59  46  63 S10         N/A
GREENBUSH NDAW   N/A     55  39  54 SE6         N/A
$$
  *****  WEATHER ACROSS CENTRAL AND WEST MINNESOTA  *****

CITY           SKY/WX    TMP DP  RH WIND       PRES   REMARKS
FOSSTON        CLOUDY    59  45  58 SE5       30.02F
BEMIDJI        MOCLDY    57  40  51 SE9       30.04F
PARK RAPIDS    CLOUDY    62  45  53 SE13      30.04F
ELBOW LAKE     CLOUDY    57  54  89 SE16      30.01F
WADENA         CLOUDY    57  52  82 SE12      30.04F
DETROIT LAKES  CLOUDY    61  52  72 SE18      30.02F
MOORHEAD       MOCLDY    61  54  77 S17G23    29.99S
FERGUS FALLS   CLOUDY    59  54  82 SE14      30.01F
MORRIS MN      CLOUDY    57  54  88 SE20      30.01F
STAPLES        DRIZZLE   57  52  82 SE9       30.06S
$$
  *****  WEATHER ELSEWHERE ACROSS MINNESOTA  *****

CITY           SKY/WX    TMP DP  RH WIND       PRES   REMARKS
DULUTH         CLOUDY    49  28  44 E10       30.15S
INTRNTL FALLS  CLEAR     48  29  47 SE5       30.10S
ELY            CLEAR     37  27  65 CALM      30.15S
CLOQUET        MOCLDY    46  30  53 E3        30.13F
WHEATON        CLOUDY    55  52  88 SE20      30.01F
BRAINERD       CLOUDY    59  47  64 SE9G16    30.08F
HIBBING        PTCLDY    42  25  50 CALM      30.13S
ALEXANDRIA     CLOUDY    56  53  90 SE17G25   30.05F
SAINT CLOUD    CLOUDY    56  53  90 SE12      30.08F
MINNEAPOLIS    CLOUDY    56  54  93 SE12      30.11F FOG
$$

  *****  WEATHER ACROSS SOUTH DAKOTA  *****

CITY           SKY/WX    TMP DP  RH WIND       PRES   REMARKS
SIOUX FALLS    CLOUDY    62  59  90 SE15      29.94F FOG
BROOKINGS      CLOUDY    59  57  94 SE17G25   29.98F
WATERTOWN      CLOUDY    60  57  89 SE12G21   29.97S FOG
HURON          CLOUDY    60  58  92 SE9       29.90F
SISSETON         N/A     57  55  93 S20       29.97F
ABERDEEN       MOCLDY    60  56  86 SE10      29.90F
MITCHELL       CLOUDY    63  60  90 SE14      29.91S
PIERRE         CLOUDY    58  57  97 SE9       29.83F FOG
MOBRIDGE       LGT RAIN  59  57  93 SE8       29.84F
RAPID CITY     CLOUDY    55  50  83 SE12      29.80F
$$

  *****  SOME WEATHER IN NEARBY STATES *****

CITY           SKY/WX    TMP DP  RH WIND       PRES   REMARKS
GLASGOW MT     MOCLDY    62  49  62 VRB6      29.66F
GREAT FALLS MT CLOUDY    48  46  93 W3        29.81R
CHEYENNE WY    LGT RAIN  47  46  97 NW9       29.76F FOG
SCOTTSBLUFF NE LGT RAIN  52 N/A N/A E13       29.75F
OMAHA NE       LGT RAIN  67  59  75 SE15G24   29.97F
DES MOINES IA  MOCLDY    67  63  87 SE9       30.03F FOG
DAVENPORT IA   CLOUDY    56  53  90 E9        30.14F FOG
CHICAGO IL     CLOUDY    46  46 100 NE6       30.19S FOG
EAU CLAIRE WI  CLOUDY    52  48  86 E6        30.16F
LA CROSSE WI   CLOUDY    56  53  90 E5        30.15F
$$

  *****  SOME NATIONAL WEATHER *****

CITY           SKY/WX    TMP DP  RH WIND       PRES   REMARKS
LA GUARDIA NY  CLOUDY    69  44  40 N3        30.19S
RALEIGH NC     MOCLDY    61  53  75 S5        30.26F
ATLANTA GA     PTCLDY    64  52  64 E3        30.22F
NEW ORLEANS LA CLEAR     70  64  81 E5        30.07F
OKLAHOMA CITY  RAIN      60  57  89 S9        29.93R FOG
ALBUQUERQUE NM LGT RAIN  54  47  77 S8        29.97S
SALT LAKE CITY CLOUDY    56  49  77 SE10      29.82F
LOS ANGELES CA MOCLDY    58  52  80 W3        29.96S
BOISE ID       CLEAR     52  27  38 W9        29.86R
SEATTLE WA     MOCLDY    46  45  93 CALM      30.11R
$$

*** WEATHER ACROSS MANITOBA...SASKATCHEWAN AND ONTARIO ***
                ***ONTARIO***

CITY           SKY/WX    TMP DP  RH WIND       PRES   REMARKS
GERALDTON      CLEAR     45  27  49 SW9       30.20R
THUNDER BAY    CLEAR     36  30  80 NE3       30.21S
SIOUX LOOKOUT  CLEAR     48  28  46 SE5       30.11S
TORONTO        MOCLDY    46  43  87 N6        30.28F
BIG TROUT LK   CLOUDY    36  25  64 E7        30.18S
PICKLE LAKE    NOT AVBL
DRYDEN         MOCLDY    55  28  35 S12       30.09S
KENORA         CLEAR     55  30  38 SE7       30.05F
$$
                *** MANITOBA***

CITY           SKY/WX    TMP DP  RH WIND       PRES   REMARKS
BRANDON        PTCLDY    55  30  38 SE10      29.87F
DAUPHIN        CLOUDY    63  30  29 SE7       29.84F
ISLAND LAKE    MOCLDY    37  32  81 E9        30.13
PILOT MOUND      N/A     57  46  67 SE15        N/A
THE PAS        MOCLDY    39  30  70 E5        29.96R
THOMPSON       MOCLDY    36  18  48 E7        30.14F
WINNIPEG       CLEAR     59  32  36 SE13      29.96S
LYNN LAKE      LGT RAIN  36  21  55 NE8       30.14R
CHURCHILL      PTCLDY    16  12  86 NW13G20   30.32S WCI   2
GILLAM         CLEAR     27  18  69 E6        30.25R WCI  20
$$
                ***SASKATCHEWAN***

CITY           SKY/WX    TMP DP  RH WIND       PRES   REMARKS
ESTEVAN        PTCLDY    52  43  71 E9        29.77F
KINDERSLEY     MOCLDY    50  41  71 SE10      29.64F
LLOYDMINSTER   MOCLDY    46  37  71 NE17      29.67F
PRINCE ALBERT  CLOUDY    43  39  87 E16       29.78F
REGINA         PTCLDY    61  50  67 SE17      29.71S
YORKTON        CLEAR     59  36  41 SE14      29.78F
N. BATTLEFORD  MOCLDY    48  41  76 E12       29.70F
LA RONGE       MOCLDY    41  27  56 NE10      29.93F
SASKATOON      LGT RAIN  55  48  76 E14G25    29.73S
SWIFT CURRENT  CLOUDY    55  46  71 SE7       29.66F
$$
NOTE: THESE ARE AUTOMATED STATIONS WITH LIMITED QUALITY CONTROL
      "FAIR" INDICATES FEW OR NO CLOUDS BELOW 12,000 FEET WITH NO
      SIGNIFICANT WEATHER AND/OR OBSTRUCTIONS TO VISIBILITY.
      SKY/WX - SKY CONDITION AND SIGNIFICANT WEATHER.
      TMP - AIR TEMPERATURE.    DP   - DEWPOINT TEMPERATURE.
      RH  - RELATIVE HUMIDITY.  PRES - PRESSURE.
      HX  - HEAT INDEX.         WCI  - WIND CHILL INDEX.
$


USA.gov is the U.S. government's official web portal to all federal, state and local government web resources and services.